Location: Casteau
(50.5142°N, 4.0161°E)
Time: 20:32:02
(UTC+00:00)

Transit 2A - Pass Details

Date: 31 July 2021
Orbit: 594 x 964 km, 66.7° (Epoch: 27 September)

Event Time Altitude Azimuth Distance (km) Brightness Sun altitude
Rises 14:27:34 0° 322° (NW) 3,190 9.3 45.0°
Reaches altitude 10° 14:29:51 10° 322° (NW) 2,318 8.7 44.7°
Maximum altitude 14:35:13 86° 236° (SW) 838 7.2 44.0°
Drops below altitude 10° 14:41:08 10° 147° (SSE) 2,551 8.8 43.2°
Sets 14:43:44 0° 147° (SSE) 3,533 9.4 42.8°
